Find Starlink 37230

NORAD ID: 68730 Int'l Des: 2026-082 Owner: SPXS Country: US Constellation: starlink operational
LEOCIRCULARRETROGRADE

当前视图

正在加载3D地球...

关于 Starlink 37230

正在加载描述...

即将过境

Passes for default location (London). Set your location on the main map for personalized predictions.

高度历史

Loading altitude history...

两行轨道根数

1 68730U 26082C 26151.16668980 -.00007216 00000-0 -22130-3 0 9990
2 68730 97.2864 14.9445 0001633 85.8398 220.3494 15.33458694 5909
Epoch: May 31, 2026 • Age: 9 hours

当前状态

高度 491.0 km
速度 7.62 km/s
星下点 -64.14°S, 58.75°W
发射日期 Apr 15, 2026
运行时间 0.1 years
类型 internet

技术详情

分类 Payload
质量 575.00 kg
干质量 530.00 kg
总质量 575.00 kg
长度 0.30 m
直径 4.10 m
跨度 29.00 m
形状 Box + pan
制造商 SPXS
平台类型 Starlink V2MO
阶段状态 In Orbit
所有者/国家 SPXS/US

Most Searched